Weather observations for the past three days for
Stafford, Stafford Regional Airport
Imperial (Metric)
Date Time (edt) Wind (mph) Vis. (mi.) Weather Sky Cond. Temperature (ºF) Relative Humidity Wind Chill (°F) Heat Index (°F) Pressure Precipitation (in)
Air Dwpt 6 hour altimeter (in) sea level (mb) 1 hr 3 hr 6 hr
Max. Min.
21 16:55 SW 3 10.00 Partly Cloudy SCT050 90.5 62.4 39% 91 30.01 0.0
21 16:35 S 7 10.00 Partly Cloudy SCT050 90.5 61.5 38% 91 30.01 0.0
21 16:15 S 5 10.00 Fair CLR 90.5 63.7 41% 92 30.02 0.0
21 15:35 E 3 10.00 Fair CLR 90 60.6 37% 90 30.03 0.0
21 15:15 S 5 10.00 Fair CLR 90.1 59.2 35% 89 30.03 0.0
21 14:55 Calm 10.00 Fair CLR 90 60.4 37% 90 30.03 0.0
21 14:35 SW 3 10.00 Partly Cloudy SCT047 89.8 61.7 39% 90 30.04 0.0
21 14:15 Calm 10.00 Partly Cloudy SCT045 88.7 62.2 41% 89 30.05 0.0
21 13:55 Calm 10.00 Partly Cloudy SCT039 SCT055 87.6 64.2 88.2 69.4 46% 89 30.05 0.0
21 13:35 SE 5 10.00 Mostly Cloudy BKN039 84.9 65.3 52% 87 30.06 0.0
21 13:15 SE 6 10.00 Partly Cloudy SCT040 87.4 67.1 51% 90 30.06 0.0
21 12:55 SE 3 10.00 Partly Cloudy SCT030 SCT038 86.2 66.9 53% 89 30.06 0.0
21 12:35 E 5 10.00 Mostly Cloudy BKN030 BKN038 85.5 68.4 57% 89 30.06 0.0
21 12:15 SE 3 10.00 Partly Cloudy SCT030 SCT038 85.3 67.3 55% 88 30.07 0.0
21 11:35 E 3 10.00 Fair CLR 84.2 67.3 57% 87 30.06 0.0
21 11:15 Calm 10.00 Partly Cloudy SCT023 83.3 68.2 60% 86 30.06 0.0
21 10:55 Calm 10.00 Mostly Cloudy BKN021 81.3 68.5 65% 84 30.07 0.0
21 10:35 Calm 10.00 Partly Cloudy SCT023 81.7 68.7 65% 85 30.06 0.0
21 10:15 Calm 10.00 Partly Cloudy SCT015 SCT021 79.9 69.1 70% 83 30.05 0.0
21 09:55 Calm 10.00 Partly Cloudy SCT013 79.2 70.9 76% 82 30.06 0.0
21 09:35 Calm 10.00 Fair CLR 76.6 70 80% 78 30.06 0.0
21 09:15 Calm 10.00 Fair CLR 74.7 69.6 84% 30.06 0.0
21 08:55 Calm 10.00 Partly Cloudy SCT004 73.9 69.6 86% 30.07 0.0
21 08:35 Calm 7.00 Mostly Cloudy BKN002 72 69.1 91% 30.06 0.0
21 08:15 Calm 5.00 Fog/Mist BKN002 70.7 68 91% 30.07 0.0
21 07:55 Calm 1.00 Fog/Mist OVC002 69.4 66.7 69.4 66.7 91% 30.06 0.0
21 07:35 Calm 3.00 Fog/Mist BKN002 OVC008 68.7 66 91% 30.06 0.0
21 07:15 Calm 0.25 Fog OVC002 68.4 65.7 91% 30.06 0.0
21 06:55 Calm 0.15 Fog OVC002 68.2 65.5 91% 30.05 0.0
21 06:35 Calm 1.00 Fog/Mist OVC002 67.6 64.9 91% 30.05 0.0
21 06:15 Calm 0.15 Fog OVC002 67.1 64.4 91% 30.05 0.0
21 05:55 Calm 1.50 Fog/Mist OVC002 67.6 64.9 91% 30.05 0.0
21 05:35 Calm 0.75 Fog/Mist OVC002 66.9 64 91% 30.04 0.0
21 05:15 Calm 10.00 Mostly Cloudy BKN002 67.6 64.8 91% 30.03 0.0
21 04:55 Calm 7.00 Fair CLR 67.3 64.4 91% 30.03 0.0
21 04:35 Calm 10.00 Fair CLR 67.1 64.2 91% 30.02 0.0
21 04:15 Calm 5.00 Fog/Mist CLR 67.6 64.8 91% 30.02 0.0
21 03:55 Calm 5.00 Fog/Mist CLR 67.5 64.6 91% 30.02 0.0
21 03:35 Calm 4.00 Fog/Mist CLR 67.6 64.8 91% 30.02 0.0
21 03:15 Calm 7.00 Fair CLR 67.3 64.4 91% 30.02 0.0
21 02:55 Calm 4.00 Fog/Mist CLR 67.3 64.4 91% 30.02 0.0
21 02:35 Calm 7.00 Fair CLR 68.4 65.5 91% 30.03 0.0
21 02:15 Calm 7.00 Fair CLR 67.6 64.8 91% 30.04 0.0
21 01:55 Calm 2.50 Fog/Mist CLR 67.8 64.8 73.8 67.6 90% 30.04 0.0
21 01:35 Calm 7.00 Fair CLR 68.2 65.1 90% 30.04 0.0
21 01:15 Calm 4.00 Fog/Mist CLR 68.5 65.5 90% 30.04 0.0
21 00:55 Calm 7.00 Fair CLR 69.4 66.4 90% 30.04 0.0
21 00:35 Calm 7.00 Fair CLR 69.4 66.4 90% 30.03 0.0
20 23:55 Calm 7.00 Fair CLR 69.8 66.4 89% 30.04 0.0
20 23:35 Calm 7.00 Fair CLR 70.3 67.1 90% 30.04 0.0
20 23:15 NW 3 7.00 Fair CLR 70.7 67.3 89% 30.05 0.0
20 22:55 Calm 7.00 Fair CLR 70.7 67.1 88% 30.06 0.0
20 22:35 Calm 10.00 Fair CLR 71.2 67.5 88% 30.05 0.0
20 22:15 Calm 10.00 Fair CLR 71.6 67.8 88% 30.06 0.0
20 21:55 Calm 7.00 Fair CLR 70.9 67.5 89% 30.06 0.0
20 21:35 Calm 10.00 Fair CLR 71.6 67.5 87% 30.05 0.0
20 21:15 Calm 10.00 Fair CLR 71.6 67.5 87% 30.05 0.0
20 20:55 Calm 10.00 Fair CLR 71.8 67.5 86% 30.06 0.0
20 20:35 Calm 10.00 Fair CLR 72.9 67.1 82% 30.06 0.0
20 20:15 Calm 10.00 Partly Cloudy SCT015 73.2 66.6 80% 30.06 0.0
20 19:55 Calm 10.00 Partly Cloudy SCT015 73.8 66.9 78.1 73.8 79% 30.05 0.0 0.19
20 19:35 S 3 10.00 Partly Cloudy SCT017 74.7 66.9 77% 30.05 0.0
20 19:15 Calm 10.00 Partly Cloudy SCT017 75.4 66 73% 77 30.06 0.0
20 18:55 SE 6 10.00 Fair CLR 76.5 66.6 72% 78 30.04 0.0
20 18:35 SE 5 10.00 Fair CLR 75.2 66.7 75% 76 30.05 0.0
20 18:15 E 5 10.00 Light Rain SCT050 SCT070 SCT100 75.4 67.5 77% 76 30.05 0.0
20 17:55 E 6 10.00 Mostly Cloudy SCT011 SCT026 BKN100 76.3 67.6 75% 78 30.06 0.0
20 17:35 E 7 10.00 Mostly Cloudy BKN009 BKN015 BKN026 76.1 68.5 78% 77 30.06 0.0
20 17:15 E 7 10.00 Overcast BKN009 OVC014 76.5 70.3 81% 78 30.06 0.0
20 16:55 Calm 10.00 Light Rain SCT009 BKN017 OVC025 76.6 71.1 83% 78 30.06 0.0 0.02 0.19
20 16:35 E 5 10.00 Light Rain BKN017 BKN027 OVC100 75.9 70.5 83% 77 30.07 0.0
20 16:15 E 3 10.00 Light Drizzle SCT021 SCT048 OVC110 75.4 69.8 83% 76 30.06 0.0
20 15:55 Calm 10.00 Light Rain SCT080 OVC100 74.8 69.8 84% 30.07 0.0 0.12
20 15:35 Calm 7.00 Light Rain OVC110 74.7 69.8 85% 30.07 0.0 0.06
20 15:15 Calm 5.00 Rain SCT090 OVC110 74.7 69.8 85% 30.07 0.0 0.04
20 14:55 Calm 5.00 Rain OVC100 74.8 69.8 84% 30.07 0.0 0.05
20 14:35 SE 7 10.00 Rain OVC100 76.5 68.2 76% 78 30.08 0.0
20 14:15 Calm 10.00 Overcast SCT044 OVC100 77.5 69.6 77% 79 30.08 0.0
20 13:55 Calm 10.00 Overcast SCT044 OVC100 78.1 69.3 80.8 71.8 74% 80 30.08 0.0 0.27
20 13:35 S 3 10.00 Overcast OVC100 78.1 69.3 74% 80 30.09 0.0
20 13:15 SE 6 10.00 Overcast OVC100 79.9 70.3 73% 83 30.09 0.0
20 12:55 E 6 10.00 Overcast SCT034 SCT049 OVC090 78.3 70.2 76% 81 30.1 0.0 0.27
20 12:35 N 3 7.00 Light Rain SCT045 BKN070 OVC090 76.6 69.3 78% 78 30.1 0.0 0.27
20 12:15 Calm 1.25 Heavy Rain SCT019 BKN032 OVC055 76.3 68.7 78% 78 30.1 0.0 0.23
20 11:55 SE 7 10.00 Overcast BKN017 BKN022 OVC029 79.3 66.7 65% 82 30.09 0.0
20 11:35 SE 3 10.00 Mostly Cloudy BKN016 BKN024 80.6 69.4 69% 84 30.1 0.0
20 11:15 SE 6 10.00 Overcast BKN014 OVC022 79.9 69.6 71% 83 30.1 0.0
20 10:55 S 3 10.00 Light Rain BKN014 BKN031 OVC050 78.8 70.7 76% 82 30.11 0.0
20 10:35 Calm 10.00 Light Rain BKN014 BKN032 OVC060 79 70 74% 82 30.11 0.0
20 10:15 Calm 10.00 Overcast BKN014 OVC029 78.1 70.3 77% 80 30.12 0.0
20 09:55 Calm 10.00 Overcast SCT012 OVC027 78.1 70.3 77% 80 30.11 0.0
20 09:35 Calm 10.00 Overcast SCT020 BKN025 OVC031 76.5 70 80% 78 30.11 0.0
20 09:15 Calm 10.00 Overcast SCT018 OVC027 75.4 69.8 83% 76 30.11 0.0
20 08:55 Calm 10.00 Mostly Cloudy BKN029 74.8 69.8 84% 30.11 0.0
20 08:35 Calm 10.00 Partly Cloudy SCT029 73.8 69.3 86% 30.12 0.0
20 08:15 Calm 10.00 Partly Cloudy SCT120 72.9 68.9 87% 30.12 0.0
20 07:55 Calm 10.00 Partly Cloudy SCT120 72.1 68.4 72.1 67.6 88% 30.12 0.0
20 07:35 Calm 10.00 Fair CLR 71.2 67.3 87% 30.12 0.0
20 07:15 Calm 10.00 Fair CLR 70.3 67.1 90% 30.11 0.0
20 06:55 Calm 7.00 Fair CLR 69.4 66.2 90% 30.12 0.0
20 06:35 Calm 10.00 Fair CLR 68.4 65.1 89% 30.11 0.0
20 06:15 Calm 10.00 Fair CLR 68.9 65.3 88% 30.11 0.0
20 05:55 Calm 10.00 Fair CLR 68.7 65.1 88% 30.11 0.0
20 05:35 Calm 10.00 Fair CLR 68.2 64.8 89% 30.11 0.0
20 05:15 Calm 10.00 Fair CLR 68.9 65.3 88% 30.11 0.0
20 04:55 Calm 10.00 Fair CLR 68.5 64.9 88% 30.11 0.0
20 04:35 Calm 10.00 Fair CLR 68.5 65.1 89% 30.11 0.0
20 04:15 Calm 10.00 Fair CLR 68.4 64.8 88% 30.1 0.0
20 03:55 Calm 10.00 Fair CLR 68.4 64.6 88% 30.11 0.0
20 03:35 Calm 10.00 Fair CLR 68.7 64.8 87% 30.11 0.0
20 03:15 Calm 10.00 Fair CLR 69.1 65.1 87% 30.12 0.0
20 02:55 Calm 10.00 Fair CLR 69.4 64.8 85% 30.11 0.0
20 02:35 Calm 10.00 Fair CLR 70 64.9 84% 30.11 0.0
20 02:15 Calm 10.00 Fair CLR 70.5 65.3 84% 30.12 0.0
20 01:55 Calm 10.00 Fair CLR 70 65.1 81.7 69.4 85% 30.12 0.0
20 01:35 Calm 10.00 Fair CLR 70.5 64.6 82% 30.12 0.0
20 01:15 Calm 10.00 Fair CLR 71.4 65.1 81% 30.13 0.0
20 00:55 Calm 10.00 Fair CLR 72.9 65.3 77% 30.12 0.0
20 00:35 Calm 10.00 Fair CLR 72.9 65.3 77% 30.12 0.0
20 00:15 Calm 10.00 Fair CLR 73.2 64.8 75% 30.12 0.0
19 23:55 SE 3 10.00 Fair CLR 73.9 64.8 73% 30.13 0.0
19 23:35 Calm 10.00 Fair CLR 74.5 65.1 73% 30.13 0.0
19 23:15 SE 3 10.00 Fair CLR 74.7 65.3 73% 30.13 0.0
19 22:55 Calm 10.00 Fair CLR 74.7 64.9 72% 30.12 0.0
19 22:35 Calm 10.00 Fair CLR 74.7 64.4 71% 30.13 0.0
19 22:15 SE 3 10.00 Fair CLR 74.8 64.2 70% 30.12 0.0
19 21:55 SE 3 10.00 Fair CLR 76.3 64.4 67% 78 30.12 0.0
19 21:35 SE 5 10.00 Fair CLR 76.5 63 63% 78 30.12 0.0
19 21:15 SE 3 10.00 Fair CLR 77.9 62.2 59% 80 30.1 0.0
19 20:55 SE 3 10.00 Fair CLR 78.1 61.5 57% 80 30.1 0.0
19 20:35 SE 5 10.00 Fair CLR 79.9 61 53% 81 30.09 0.0
19 20:15 E 6 10.00 Fair CLR 80.8 59.7 49% 81 30.08 0.0
19 19:55 E 6 10.00 Fair CLR 81.7 59.7 87.4 81.7 47% 82 30.09 0.0
19 19:35 SE 5 10.00 Fair CLR 81.7 59.9 48% 82 30.09 0.0
19 19:15 E 7 10.00 Fair CLR 82.6 59.9 46% 83 30.08 0.0
19 18:55 E 7 10.00 Fair CLR 83.7 59.9 45% 84 30.08 0.0
19 18:35 SE 6 10.00 Fair CLR 84.4 59.7 43% 84 30.08 0.0
19 18:15 E 7 10.00 Fair CLR 84.9 59.4 42% 85 30.08 0.0
19 17:55 E 8 10.00 Partly Cloudy SCT060 85.5 59.2 41% 85 30.07 0.0
19 17:35 E 7 10.00 Mostly Cloudy BKN060 85.5 59.7 42% 85 30.08 0.0
19 17:15 SE 6 10.00 Partly Cloudy SCT050 85.3 59.7 42% 85 30.08 0.0
19 16:55 E 6 10.00 Partly Cloudy SCT055 85.8 59.5 41% 85 30.09 0.0
19 16:35 E 6 10.00 Fair CLR 86.5 60.3 41% 86 30.09 0.0
19 16:15 SE 3 10.00 Mostly Cloudy SCT070 SCT075 BKN090 85.5 60.6 43% 85 30.1 0.0
19 15:55 NE 3 10.00 Overcast SCT060 OVC090 83.8 59.9 44% 84 30.1 0.0
19 15:35 E 7 10.00 Mostly Cloudy SCT047 BKN060 BKN100 85.3 60.1 43% 85 30.1 0.0
19 15:15 E 5 10.00 Partly Cloudy SCT045 86.4 59.4 40% 86 30.11 0.0
19 14:55 NE 5 10.00 Partly Cloudy SCT100 85.1 59.2 42% 85 30.11 0.0
19 14:35 SE 9 10.00 Mostly Cloudy SCT047 BKN110 84.6 60.8 45% 85 30.12 0.0
19 14:15 E 7 10.00 Mostly Cloudy SCT043 SCT049 BKN110 86.2 59.5 41% 86 30.12 0.0
19 13:55 E 6 10.00 Partly Cloudy SCT043 SCT110 84.7 60.1 85.1 73.4 43% 85 30.13 0.0
19 13:35 E 5 10.00 Partly Cloudy SCT038 SCT046 SCT110 84.7 60.8 45% 85 30.13 0.0
19 13:15 SE 6 10.00 Mostly Cloudy SCT038 BKN046 84.2 62.1 47% 85 30.15 0.0
19 12:55 E 5 10.00 Fair CLR 83.8 61.2 46% 84 30.14 0.0
19 12:35 E 7 10.00 Partly Cloudy SCT110 83.7 60.6 46% 84 30.14 0.0
19 12:15 E 5 10.00 Partly Cloudy SCT110 82.9 61 48% 83 30.15 0.0
19 11:55 E 8 10.00 Partly Cloudy SCT110 82.2 60.6 48% 83 30.15 0.0
19 11:15 NE 6 10.00 Overcast SCT027 OVC110 80.2 62.8 55% 82 30.14 0.0
19 10:55 E 6 10.00 Overcast OVC110 79.9 62.6 56% 81 30.14 0.0
19 10:35 E 6 10.00 Overcast OVC110 79.2 63 58% 81 30.14 0.0
19 10:15 E 8 10.00 Overcast OVC110 78.4 62.2 58% 80 30.14 0.0
19 09:55 E 9 10.00 Mostly Cloudy BKN110 78.1 62.2 58% 80 30.14 0.0
19 09:35 NE 8 10.00 Partly Cloudy SCT110 78.6 62.6 58% 80 30.12 0.0
19 09:15 E 12 10.00 Partly Cloudy SCT090 77.9 62.8 60% 80 30.13 0.0
19 08:55 NE 10 10.00 Fair CLR 77.2 64.2 64% 79 30.13 0.0
19 08:35 N 6 10.00 Fair CLR 76.3 64.6 67% 78 30.12 0.0
19 08:15 N 6 10.00 Fair CLR 74.7 63.9 69% 30.12 0.0
19 07:55 N 6 10.00 Fair CLR 73 63.7 73 67.3 73% 30.12 0.0
19 07:35 N 6 10.00 Partly Cloudy SCT110 71.8 63.7 76% 30.11 0.0
19 07:15 N 5 10.00 Partly Cloudy SCT110 71.1 64.4 80% 30.1 0.0
19 06:55 N 5 10.00 Partly Cloudy SCT120 68.5 64.9 88% 30.09 0.0
19 06:35 Calm 10.00 Partly Cloudy SCT090 68.2 64.2 87% 30.08 0.0
19 06:15 Calm 7.00 Mostly Cloudy BKN090 67.6 63.5 87% 30.07 0.0
19 05:55 N 3 10.00 Partly Cloudy SCT090 67.6 63.5 87% 30.05 0.0
19 05:35 Calm 10.00 Mostly Cloudy BKN090 68.5 63.9 85% 30.05 0.0
19 05:15 Calm 10.00 Mostly Cloudy BKN090 68.2 64.2 87% 30.05 0.0
19 04:55 Calm 10.00 Fair CLR 67.6 63.9 88% 30.03 0.0
19 04:35 Calm 10.00 Fair CLR 67.6 64.4 89% 30.03 0.0
19 04:15 Calm 10.00 Fair CLR 67.3 63.5 88% 30.03 0.0
19 03:55 Calm 10.00 Fair CLR 67.6 64 88% 30.03 0.0
19 03:35 Calm 10.00 Fair CLR 68.2 64.2 87% 30.02 0.0
19 03:15 Calm 10.00 Fair CLR 68.2 64.4 88% 30.02 0.0
19 02:55 NW 3 10.00 Fair CLR 68 64.4 88% 30.02 0.0
19 02:35 Calm 10.00 Fair CLR 68.5 64.9 88% 30.02 0.0
19 02:15 Calm 10.00 Fair CLR 69.4 65.3 87% 30.02 0.0
19 01:55 Calm 10.00 Fair CLR 69.4 65.7 79.9 69.4 88% 30.03 0.0
19 01:35 Calm 10.00 Partly Cloudy SCT100 69.4 65.7 88% 30.02 0.0
19 01:15 Calm 10.00 Mostly Cloudy BKN100 69.8 65.5 86% 30.03 0.0
19 00:55 Calm 10.00 Mostly Cloudy BKN100 70 66 87% 30.02 0.0
19 00:35 Calm 10.00 Mostly Cloudy BKN100 70 65.8 87% 30.02 0.0
19 00:15 Calm 10.00 Mostly Cloudy BKN100 70.3 66 86% 30.03 0.0
18 23:55 Calm 10.00 Fair CLR 71.1 65.3 82% 30.02 0.0
18 23:35 Calm 10.00 Fair CLR 71.2 65.5 82% 30 0.0
18 23:15 Calm 10.00 Fair CLR 70.9 66.2 85% 30.01 0.0
18 22:55 Calm 10.00 Partly Cloudy SCT100 71.1 66.2 85% 30.01 0.0
18 22:35 Calm 10.00 Overcast OVC100 72.5 66.7 82% 30 0.0
18 22:15 Calm 10.00 Overcast OVC100 72.9 66.2 80% 30 0.0
18 21:55 Calm 10.00 Mostly Cloudy BKN100 72.9 67.1 82% 30.01 0.0
18 21:35 N 3 10.00 Partly Cloudy SCT110 73.8 66.4 78% 30 0.0
18 21:15 N 3 10.00 Partly Cloudy SCT120 74.3 66.6 77% 29.98 0.0
18 20:55 Calm 10.00 Partly Cloudy SCT120 74.8 66 74% 29.98 0.0
18 20:35 Calm 10.00 Fair CLR 76.6 65.8 69% 78 29.97 0.0
18 20:15 Calm 10.00 Fair CLR 77.7 65.7 67% 80 29.96 0.0
18 19:55 Calm 10.00 Fair CLR 80.2 63.5 85.3 80.2 57% 82 29.95 0.0
18 19:35 N 3 10.00 Fair CLR 81.7 62.2 52% 83 29.94 0.0
18 19:15 N 3 10.00 Fair CLR 81.7 61.3 50% 82 29.93 0.0
18 18:55 N 5 10.00 Fair CLR 81.7 61.5 51% 82 29.93 0.0
Date Time (edt) Wind (mph) Vis. (mi.) Weather Sky Cond. Air Dwpt Max. Min. Relative Humidity Wind Chill (°F) Heat Index (°F) altimeter (in) sea level (mb) 1 hr 3 hr 6 hr
6 hour
Temperature (ºF) Pressure Precipitation (in)